sat.trackr.live / text

‹ back to catalog

SKYNET 5B

NORAD 32294 · 2007-056B

PAYLOAD ACTIVE UNKNOWN

§ Identity

Operator
Country
UK
Launch date
2007-11-14
Launch site
FRGUI
Launch vehicle
Mass (kg)
RCS (m²)
15.89

Purposes: comms

External: N2YO · Heavens-Above · Gunter

§ Orbital elements

Epoch: 2026-09-13T01:59:57.977952Z

Period
1,436.13 min
Inclination
5.4683°
Eccentricity
0.0003699
Mean motion
1.00269203 rev/d
Perigee alt
35,771.7 km
Apogee alt
35,802.9 km
Semi-major
42,165.5 km
B*
0.0000e+0
RAAN
72.4069°
Arg perigee
101.7614°
Mean anomaly
233.0249°
Rev number
6,907

§ Raw data

SKYNET 5B1 32294U 07056B   26256.08330993  .00000130  00000+0  00000+0 0  99962 32294   5.4683  72.4069 0003699 101.7614 233.0249  1.00269203 69071

JSON: /api/v1/satellites/32294 · /tle

For live sub-satellite position, see the globe view (requires WebGL).

§ Visibility from observer

Set your observer location to see the next 7 days of passes ≥ 10°. The values pass through the URL so the page stays shareable.

No JS? Fill the form by hand. The geolocation button needs JavaScript.